STARLINK-37065, 68083

Orbit data source: Space-Track

STARLINK-37065, 68083 is a payload satellite owned by SpaceX/Seattle (US) in LEO that was launched on Wed, 04 Mar 2026 UTC via an FALCON 9 launch vehicle from the Air Force Eastern Test Range (AFETR). Payload-class satellites include a variety of spacecraft equipped with specific instruments for various scientific and technological missions. These include communications satellites like Starlink; space stations such as the ISS; scientific satellites like the Hubble; Earth observation satellites from companies like Planet Labs, Umbra, and HawkEye 360; GPS; miniature CubeSats for education and research; and military/defense satellites.

Loading next visibility...
Identifier
68083, 2026-042Q
Orbit
LEO
Country
Flag of USUS
Related business
Manufacturer
SpaceX/Seattle
Mission
Operational spacecraft
Bus & Motor
STARLINK V2MO, Unknown motor
Mass
575 kg wet, ~530 kg dry
Launch date (UTC)
2026-03-04 (1 month ago)
Launch vehicle
FALCON 9
Launch site
Air Force Eastern Test Range (AFETR)
Object type
Payload
Rocket body
Debris
Shape & HBR
Unknown shape, 17.7 m
Radar Cross Section
RCS unknown

Expand to show TLE details & history
Last TLE update: 9 hours ago

TLE from 9 hours ago
0 STARLINK-37065
1 68083U 26042Q   26102.21478607  .00114536  00000-0  74029-3 0  9990
2 68083  53.1595  27.6404 0000406 200.9940 159.1064 15.75268945  7377
Epoch: 2026-04-12T05:09Z
TLE epoch observation values (Epoch: 2026-04-12T05:09:17.516Z)
Latitude
Longitude
109.89447°
Altitude
345.038 km
Speed
7.703 km/s
True Right ascension
01h 50m 33s
True Declination
0° 00' 00"
Sunlit
Object was in daylight at epoch
Visualization orbit readout
Latitude
Unknown
Longitude
Unknown
Altitude
Unknown
Speed
Unknown
Apparent Right ascension
Unknown
Apparent Declination
Unknown
Sunlit
N/A
Visualization observer readout
Local Sidereal Time
20:39:59
Azimuth
Unknown
Elevation
Unknown
Doppler factor
Unknown
Orbital elements
Apogee altitude
344.4 km
Perigee altitude
343.854 km
Semi-major axis
6,722.264 km
Eccentricity
0.00004
Inclination
53.1595°
RAAN
27.6404°
Arg. of periapsis
200.994°
True anomaly
159.10806°
Mean anomaly
159.1064°
Eccentric anomaly
159.10723°
Mean motion
3.93795 °/min
Orbital period
91.42 mins
BSTAR
0.00074029
Loading maneuver chart data...
Computing Atmospheric mass density...
Loading historical data...
Loading historical data...
Loading historical data...
Loading historical data...
Loading historical data...
Loading historical data...
Loading historical data...

Documentation

Showing up to 5 results
|